Location: Copeville
(33.0796°N, 96.4155°W)
Time: 06:15:37
(UTC+00:00)

Cosmos 1328 Rocket - Pass Details

Date: 07 July 2022
Orbit: 600 x 627 km, 82.5° (Epoch: 14 August)

Event Time Altitude Azimuth Distance (km) Brightness Sun altitude
Rises 07:49:27 0° 4° (N) 2,893 8.0 -31.3°
Reaches altitude 10° 07:51:53 10° 15° (NNE) 1,979 7.0 -31.1°
Enters shadow 07:54:55 30° 54° (NE) 1,111 5.2 -30.8°
